[[{"header":{"parameterUnit":"m.s-1","parameterCategory":1,"la1":30.2991,"la2":30.254,"lo1":-89.0895,"lo2":-89.0444,"dy":0.0017,"dx":0.0017,"nx":28,"ny":28,"refTime":"2023-10-16T03:00:00:Z","depth":0,"parameterNumber":2,"parameterNumberName":"U-component_of_WINDS"},"data":[0,0,0,0,0,0,0,0,0,0,0,0,0,0,0,0,0,0,0,0,0,0,0,0,0,0,0,0,0,0,0,0,0,0,0,0,0,0,0,0,0,0,0,0,0,0,0,0,0,0,0,0,0,0,0,0,0,0,3.8716,3.8717,0,3.8734,3.8734,3.8734,3.867,3.8668,3.8666,3.8664,3.868,3.8682,3.8684,0,0,0,0,0,0,0,0,0,0,0,0,0,3.8627,3.8629,3.8716,3.8717,3.8717,3.8734,3.8734,3.8734,3.867,3.8668,3.8666,3.8663,3.8679,3.8682,3.8684,0,0,0,0,0,0,0,0,0,0,0,0,0,3.8657,3.863,3.8716,3.8687,3.8685,3.8734,3.8734,3.8734,3.8671,3.8668,3.8665,3.8662,3.8678,3.8681,3.8685,3.8762,0,0,3.8695,3.8696,0,0,0,0,0,0,0,0,3.8656,3.8661,3.8691,3.8689,3.8687,3.8697,3.8708,3.8743,3.8671,3.8676,3.8664,3.8661,3.8688,3.869,3.8699,3.8763,3.8763,3.8695,3.8697,3.8698,3.8699,0,0,0,0,0,0,0,3.8654,3.866,3.8723,3.8692,3.8689,3.8673,3.8674,3.8714,3.8697,3.8675,3.8671,3.8674,3.8686,3.8696,3.8699,3.8763,3.8695,3.8698,3.87,3.8701,3.8892,3.8895,0,0,0,0,0,0,3.8656,3.8658,3.8723,3.8724,3.8664,3.8677,3.8678,3.8696,3.8697,3.8694,3.8676,3.8671,3.8692,3.8695,3.8699,3.879,3.8698,3.8701,3.8703,3.8889,3.8893,3.8896,0,0,0,0,0,0,3.8654,3.8662,3.8722,3.869,3.8696,3.8681,3.8702,3.8698,3.8709,3.8698,3.8694,3.869,3.869,3.8695,3.8747,3.879,3.8703,3.8706,3.8886,3.889,3.8895,3.8973,0,0,0,0,0,0,3.8652,3.8662,3.8691,3.8691,3.8698,3.877,3.8705,3.8701,3.8715,3.8708,3.871,3.8707,3.8688,3.8743,3.8751,3.8793,3.8708,3.8882,3.8888,3.8893,3.8967,3.898,3.8991,0,0,0,0,0,3.8649,3.8712,3.8693,3.8701,3.8735,3.8772,3.8776,3.8754,3.8718,3.8748,3.8741,3.8707,3.8785,3.8749,3.8757,3.8801,3.8879,3.8886,3.8893,3.8961,3.8977,3.8991,0,0,0,0,0,0,3.8716,3.8711,3.869,3.8755,3.8765,3.8762,3.8797,3.8771,3.8791,3.8783,3.8754,3.8755,3.8813,3.8812,3.8772,3.8877,3.8826,3.8835,3.8875,3.889,3.8902,3.8901,3.8711,0,0,0,0,0,3.8739,3.877,3.8764,3.8822,3.8828,3.8813,3.8828,3.881,3.8818,3.8822,3.8819,3.8828,3.8854,3.8872,3.8896,3.8967,3.8966,3.9001,3.9014,3.9024,3.9032,3.907,3.9086,3.892,3.8919,3.8919,0,0,3.8785,3.8786,3.8808,3.8835,3.8841,3.8874,3.8816,3.8853,3.8878,3.8827,3.8877,3.8875,3.8884,3.8946,3.8973,3.8947,3.9078,3.9033,3.9041,3.9043,3.9079,3.9095,3.9109,3.8924,3.8923,3.8923,0,0,3.8886,3.8891,3.894,3.8947,3.8957,3.8946,3.8958,3.896,3.8957,3.9007,3.897,3.8999,3.9044,3.9052,3.9062,3.917,3.914,3.9178,3.9242,3.928,3.9293,3.9305,3.9343,3.9357,3.9186,3.9187,3.9187,0,3.8942,3.8991,3.8968,3.9009,3.9022,3.898,3.9029,3.9037,3.9054,3.9064,3.9035,3.9093,3.9096,3.916,3.9186,3.9196,3.9209,3.9177,3.9293,3.9305,3.9315,3.9351,3.9366,3.9191,3.9191,3.919,3.919,0,3.906,3.9095,3.9134,3.9152,3.917,3.9215,3.9198,3.9219,3.9201,3.9193,3.9245,3.9247,3.9271,3.9285,3.9266,3.9347,3.9331,3.9298,3.9246,3.9336,3.9369,3.9383,3.9198,3.9196,3.9195,3.9194,0,0,3.9202,3.9209,3.9224,3.9232,3.9241,3.9267,3.9311,3.9335,3.9354,3.9368,3.9403,3.9445,3.9415,3.9427,3.9409,3.9442,3.9528,3.9405,3.9405,3.9428,3.9617,3.9641,3.9658,3.9508,3.9511,3.9513,3.9616,0,3.9302,3.9377,3.9358,3.9432,3.9465,3.9426,3.9464,3.9474,3.9469,3.9495,3.9489,3.9519,3.9478,3.9485,3.9516,3.9511,3.9565,3.9503,3.9541,3.9542,3.9539,3.9675,3.97,3.9798,3.9629,3.9631,3.9633,0,3.9427,3.9448,3.9526,3.9531,3.9544,3.9578,3.96,3.9626,3.9636,3.963,3.9645,3.9621,3.9664,3.9613,3.9672,3.963,3.9645,3.9645,3.9648,3.965,3.9592,3.968,3.9828,3.9843,3.9654,3.9652,3.965,0,3.9523,3.957,3.9623,3.9632,3.9639,3.9664,3.9668,3.9676,3.9693,3.9712,3.9722,3.9746,3.9758,3.9777,3.9761,3.9725,3.9822,3.977,3.9818,3.9819,3.9839,3.9838,3.9991,3.985,3.985,3.985,3.985,0,3.9636,3.9685,3.9666,3.9699,3.9753,3.9732,3.9786,3.9785,3.9793,3.9825,3.9793,3.9823,3.98,3.9828,3.9815,3.9866,3.9872,3.9869,3.9865,3.9871,3.9872,3.988,3.9872,3.9854,3.9853,3.9852,3.9851,0,3.9752,3.9741,3.9796,3.98,3.9802,3.9842,3.9844,3.9874,3.9868,3.9909,3.9917,3.9907,3.9939,3.9924,3.9957,3.9949,4.0015,4.0002,4.0011,4.0008,4.0057,4.0053,4.022,4.0241,4.0087,4.0089,4.009,0,3.9824,3.9861,3.9869,3.9889,3.9896,3.9928,3.9945,3.9926,3.9945,3.9961,3.9989,4.0019,4.0041,4.0094,4.0089,4.0115,4.0102,4.0159,4.0106,4.0112,4.0103,4.0101,4.0104,4.0169,4.0171,4.0173,4.0174,0,3.9954,3.9947,3.9974,4.0,4.0022,4.004,4.0056,4.0074,4.0055,4.0079,4.0112,4.013,4.0165,4.0194,4.0217,4.0221,4.0195,4.0191,4.0204,4.021,4.0215,4.0213,4.004,4.0187,4.0186,4.0185,4.0184,4.0184,4.0049,4.0081,4.0093,4.0124,4.0134,4.0151,4.018,4.0178,4.0205,4.0233,4.022,4.0259,4.0269,4.0298,4.0305,4.0335,4.0312,4.0331,4.0335,4.034,4.0346,4.0211,4.0339,4.0339,4.0338,4.0338,4.0338,0,4.0177,4.0183,4.0213,4.0237,4.0262,4.0237,4.0254,4.0276,4.031,4.0323,4.0347,4.0385,4.0415,4.0413,4.044,4.0464,4.0453,4.0472,4.047,4.0471,4.0365,4.0351,4.0481,4.0481,4.0481,4.0481,4.0481,4.0481,4.0247,4.03,4.0295,4.0353,4.0358,4.0397,4.0409,4.0424,4.0434,4.0479,4.0504,4.0503,4.051,4.0538,4.0564,4.0563,4.0574,4.0598,4.0592,4.0493,4.0478,4.0465,4.0452,4.06,4.06,4.0695,4.0696,4.0697]},{"header":{"parameterUnit":"m.s-1","parameterCategory":1,"la1":30.2991,"la2":30.254,"lo1":-89.0895,"lo2":-89.0444,"dy":0.0017,"dx":0.0017,"nx":28,"ny":28,"refTime":"2023-10-16T03:00:00:Z","depth":0,"parameterNumber":3,"parameterNumberName":"V-component_of_WINDS"},"data":[0,0,0,0,0,0,0,0,0,0,0,0,0,0,0,0,0,0,0,0,0,0,0,0,0,0,0,0,0,0,0,0,0,0,0,0,0,0,0,0,0,0,0,0,0,0,0,0,0,0,0,0,0,0,0,0,0,0,-5.2168,-5.2169,0,-5.2335,-5.2337,-5.2338,-5.2273,-5.2269,-5.2265,-5.2262,-5.2431,-5.2439,-5.2447,0,0,0,0,0,0,0,0,0,0,0,0,0,-5.1791,-5.1798,-5.2167,-5.217,-5.2172,-5.2334,-5.2337,-5.2339,-5.2274,-5.2269,-5.2264,-5.226,-5.2428,-5.2438,-5.2447,0,0,0,0,0,0,0,0,0,0,0,0,0,-5.1956,-5.1801,-5.2167,-5.2159,-5.216,-5.2334,-5.2337,-5.234,-5.2275,-5.2269,-5.2263,-5.2258,-5.2425,-5.2437,-5.2449,-5.264,0,0,-5.2486,-5.2491,0,0,0,0,0,0,0,0,-5.1947,-5.197,-5.2158,-5.216,-5.2161,-5.2277,-5.2266,-5.244,-5.2276,-5.2231,-5.2262,-5.2255,-5.2384,-5.2399,-5.2443,-5.2648,-5.2655,-5.2487,-5.2494,-5.25,-5.2503,0,0,0,0,0,0,0,-5.1936,-5.1962,-5.2233,-5.2161,-5.2163,-5.2146,-5.2163,-5.2299,-5.2338,-5.2234,-5.223,-5.2251,-5.2384,-5.2432,-5.2447,-5.2658,-5.2487,-5.2497,-5.2505,-5.251,-5.303,-5.3037,0,0,0,0,0,0,-5.1924,-5.1953,-5.2228,-5.2238,-5.2037,-5.2158,-5.2177,-5.2246,-5.2336,-5.2345,-5.2256,-5.2247,-5.2414,-5.2433,-5.2452,-5.2685,-5.2499,-5.2511,-5.2518,-5.3024,-5.3032,-5.3039,0,0,0,0,0,0,-5.1916,-5.1949,-5.2221,-5.2095,-5.2128,-5.2171,-5.2248,-5.2252,-5.23,-5.2353,-5.2359,-5.2298,-5.241,-5.2435,-5.2595,-5.2689,-5.2516,-5.2527,-5.3016,-5.3026,-5.3035,-5.3149,0,0,0,0,0,0,-5.1905,-5.1946,-5.202,-5.2097,-5.2135,-5.2362,-5.2254,-5.226,-5.2321,-5.2312,-5.2394,-5.2401,-5.2407,-5.2577,-5.2607,-5.2703,-5.2537,-5.3008,-5.3021,-5.3032,-5.3137,-5.3162,-5.3182,0,0,0,0,0,-5.1892,-5.2044,-5.2024,-5.2057,-5.2228,-5.2367,-5.2389,-5.2393,-5.2329,-5.2403,-5.2438,-5.2399,-5.2674,-5.2594,-5.2627,-5.2728,-5.3002,-5.3017,-5.3031,-5.3127,-5.3157,-5.3182,0,0,0,0,0,0,-5.1976,-5.2054,-5.2032,-5.2214,-5.2285,-5.2356,-5.2449,-5.2424,-5.2514,-5.2501,-5.2502,-5.2521,-5.2686,-5.2723,-5.2632,-5.2919,-5.2828,-5.285,-5.289,-5.2918,-5.2941,-5.2929,-5.2547,0,0,0,0,0,-5.2016,-5.2122,-5.2185,-5.2339,-5.2376,-5.2407,-5.2467,-5.2465,-5.2538,-5.2567,-5.2612,-5.2684,-5.2787,-5.2854,-5.2952,-5.3142,-5.3159,-5.3228,-5.3251,-5.3269,-5.3288,-5.3393,-5.3425,-5.3087,-5.3087,-5.3087,0,0,-5.2099,-5.2154,-5.2222,-5.2357,-5.2412,-5.2522,-5.2432,-5.2552,-5.2635,-5.2585,-5.2739,-5.2775,-5.2855,-5.3031,-5.3111,-5.3067,-5.3386,-5.3288,-5.3302,-5.3311,-5.3412,-5.3444,-5.3472,-5.3097,-5.3095,-5.3094,0,0,-5.2307,-5.2359,-5.2494,-5.2551,-5.2635,-5.2655,-5.2688,-5.2764,-5.2786,-5.2941,-5.2906,-5.3004,-5.318,-5.3239,-5.3293,-5.3525,-5.3494,-5.3557,-5.3676,-5.3778,-5.3805,-5.3829,-5.3913,-5.3943,-5.3576,-5.3576,-5.3576,0,-5.2399,-5.2565,-5.2567,-5.2691,-5.2752,-5.2713,-5.2851,-5.2905,-5.3017,-5.306,-5.3009,-5.3231,-5.3282,-5.3473,-5.353,-5.3574,-5.3612,-5.3548,-5.3801,-5.3825,-5.3847,-5.3927,-5.3959,-5.3583,-5.3582,-5.3582,-5.3581,0,-5.2675,-5.2791,-5.289,-5.3,-5.3072,-5.3202,-5.3224,-5.3297,-5.3289,-5.3314,-5.3473,-5.3533,-5.3643,-5.3687,-5.368,-5.3878,-5.3848,-5.3799,-5.3708,-5.3886,-5.3962,-5.3993,-5.3594,-5.3591,-5.3589,-5.3587,0,0,-5.294,-5.3051,-5.3087,-5.3138,-5.3228,-5.3317,-5.3446,-5.3555,-5.3618,-5.3696,-5.3805,-5.3956,-5.3912,-5.3973,-5.3971,-5.4061,-5.4244,-5.4001,-5.4003,-5.4046,-5.4468,-5.4505,-5.4541,-5.4223,-5.4229,-5.4234,-5.4462,0,-5.3156,-5.3383,-5.339,-5.3597,-5.3705,-5.367,-5.3782,-5.385,-5.3878,-5.3973,-5.4003,-5.4111,-5.4044,-5.4081,-5.4168,-5.4203,-5.4329,-5.4186,-5.4325,-5.433,-5.4307,-5.458,-5.4619,-5.4832,-5.4491,-5.4496,-5.45,0,-5.3439,-5.3528,-5.3747,-5.3823,-5.3869,-5.397,-5.4071,-5.4162,-5.4238,-5.4252,-5.4321,-5.4307,-5.4439,-5.4343,-5.4526,-5.4429,-5.4486,-5.4512,-5.452,-5.4534,-5.4426,-5.4603,-5.4899,-5.4932,-5.4546,-5.4542,-5.4539,0,-5.3612,-5.3786,-5.394,-5.3984,-5.4077,-5.4149,-5.4191,-5.4262,-5.4328,-5.4416,-5.4458,-5.456,-5.4616,-5.4695,-5.4709,-5.4638,-5.4893,-5.4798,-5.4909,-5.4909,-5.4965,-5.4961,-5.5276,-5.5,-5.4999,-5.4999,-5.4998,0,-5.3854,-5.399,-5.402,-5.4115,-5.4266,-5.4272,-5.4422,-5.4458,-5.4522,-5.4623,-5.4599,-5.4694,-5.4706,-5.4806,-5.4817,-5.4968,-5.4993,-5.5008,-5.501,-5.5011,-5.501,-5.5049,-5.5035,-5.5007,-5.5005,-5.5004,-5.5002,0,-5.4074,-5.4099,-5.4265,-5.434,-5.4362,-5.4471,-5.4535,-5.4626,-5.4651,-5.478,-5.4811,-5.485,-5.4966,-5.4988,-5.5124,-5.5132,-5.5312,-5.5298,-5.5286,-5.5285,-5.5396,-5.5386,-5.5748,-5.5797,-5.5487,-5.549,-5.5492,0,-5.4227,-5.4331,-5.4417,-5.4484,-5.453,-5.4637,-5.4705,-5.4715,-5.4786,-5.4882,-5.4962,-5.5075,-5.5166,-5.5353,-5.5394,-5.5498,-5.5487,-5.5607,-5.5503,-5.5502,-5.5491,-5.5486,-5.5497,-5.5628,-5.5631,-5.5634,-5.5636,0,-5.4496,-5.4505,-5.4602,-5.4706,-5.4787,-5.4869,-5.4946,-5.5002,-5.5023,-5.5104,-5.5223,-5.5294,-5.5433,-5.5547,-5.5651,-5.5694,-5.567,-5.5668,-5.57,-5.5703,-5.5693,-5.5702,-5.5343,-5.566,-5.5658,-5.5656,-5.5655,-5.5654,-5.4689,-5.478,-5.4856,-5.4967,-5.5026,-5.51,-5.519,-5.5227,-5.5326,-5.5442,-5.5441,-5.5572,-5.5647,-5.5785,-5.5835,-5.5937,-5.5899,-5.5944,-5.5956,-5.5967,-5.5979,-5.5676,-5.5956,-5.5955,-5.5954,-5.5954,-5.5953,0,-5.4959,-5.5006,-5.5108,-5.5218,-5.5305,-5.5274,-5.5359,-5.5434,-5.555,-5.5622,-5.5713,-5.585,-5.596,-5.6011,-5.6119,-5.6192,-5.6183,-5.622,-5.6215,-5.6226,-5.6006,-5.5968,-5.6225,-5.6225,-5.6225,-5.6225,-5.6225,-5.6225,-5.5109,-5.5263,-5.528,-5.5464,-5.551,-5.5638,-5.569,-5.5758,-5.5816,-5.597,-5.6062,-5.6095,-5.6159,-5.6272,-5.6372,-5.6384,-5.6426,-5.6469,-5.6476,-5.6269,-5.6241,-5.6215,-5.618,-5.6477,-5.6478,-5.6688,-5.669,-5.6691]}]]